NKS1631 KMYR-KACY

Flight info

Callsign NKS1631
Flight time N/A
Altitude 39000
Route CRE RAPZZ Q135 RREGG Q117 SAWED Q97 ZJAAY RADDS V139 SIE
Aircraft A20N/M-SDE2E3FGHIRWXY/LB1

Departure

Time 2026-05-09 19:54
Airport Myrtle Beach International Airport (KMYR)

Arrival

Time N/A
Airport Atlantic City International Airport (KACY)
Time Latitude Longitude Altitude Speed Heading
2026-05-09 19:29 33.68255 -78.92412 35 ft 0 kts 95°
2026-05-09 19:42 33.68256 -78.92425 35 ft 4 kts 93°
2026-05-09 19:43 33.68256 -78.92455 33 ft 4 kts 83°
2026-05-09 19:43 33.68252 -78.92487 33 ft 4 kts 77°
2026-05-09 19:43 33.68244 -78.92518 33 ft 4 kts 68°
2026-05-09 19:43 33.68232 -78.92546 32 ft 4 kts 51°
2026-05-09 19:44 33.68216 -78.92564 34 ft 1 kts 24°
2026-05-09 19:49 33.68218 -78.92563 34 ft 1 kts 24°
2026-05-09 19:49 33.68234 -78.92557 32 ft 3 kts 15°
2026-05-09 19:50 33.68257 -78.92555 33 ft 3 kts 351°
2026-05-09 19:50 33.68302 -78.92565 35 ft 10 kts 350°
2026-05-09 19:50 33.68390 -78.92586 35 ft 15 kts 348°
2026-05-09 19:50 33.68505 -78.92615 35 ft 18 kts 348°
2026-05-09 19:51 33.68625 -78.92646 35 ft 18 kts 347°
2026-05-09 19:51 33.68744 -78.92676 35 ft 17 kts 348°
2026-05-09 19:51 33.68859 -78.92705 35 ft 17 kts 347°
2026-05-09 19:51 33.68978 -78.92734 35 ft 18 kts 348°
2026-05-09 19:52 33.69106 -78.92766 35 ft 19 kts 348°
2026-05-09 19:52 33.69249 -78.92802 35 ft 18 kts 348°
2026-05-09 19:52 33.69291 -78.92868 35 ft 10 kts 259°
2026-05-09 19:52 33.69276 -78.92951 32 ft 10 kts 258°
2026-05-09 19:53 33.69261 -78.93033 34 ft 10 kts 257°
2026-05-09 19:53 33.69247 -78.93112 35 ft 9 kts 258°
2026-05-09 19:53 33.69213 -78.93142 36 ft 5 kts 173°
2026-05-09 19:53 33.69204 -78.93139 36 ft 0 kts 168°
2026-05-09 19:54 33.69174 -78.93132 36 ft 17 kts 168°
2026-05-09 19:54 33.68827 -78.93045 35 ft 86 kts 168°
2026-05-09 19:54 33.68002 -78.92835 49 ft 152 kts 168°
2026-05-09 19:54 33.66972 -78.92588 749 ft 150 kts 169°
2026-05-09 19:55 33.65941 -78.92342 1513 ft 160 kts 173°
2026-05-09 19:55 33.64744 -78.91997 1923 ft 192 kts 169°
2026-05-09 19:55 33.63335 -78.91576 2186 ft 226 kts 169°
2026-05-09 19:56 33.60027 -78.90574 3400 ft 256 kts 169°
2026-05-09 19:56 33.58295 -78.90009 4238 ft 261 kts 169°
2026-05-09 19:56 33.56550 -78.89286 5025 ft 271 kts 159°
2026-05-09 19:56 33.54976 -78.87953 5812 ft 286 kts 137°
2026-05-09 19:57 33.53979 -78.85853 6594 ft 300 kts 106°
2026-05-09 19:57 33.53984 -78.83338 7327 ft 308 kts 73°
2026-05-09 19:57 33.55041 -78.81130 8110 ft 308 kts 40°
2026-05-09 19:57 33.56168 -78.80133 8634 ft 304 kts 23°
2026-05-09 19:58 33.58790 -78.78990 9821 ft 299 kts
2026-05-09 19:58 33.60844 -78.78488 10486 ft 308 kts
2026-05-09 19:58 33.62275 -78.78191 10728 ft 323 kts
2026-05-09 19:58 33.65333 -78.77510 11456 ft 341 kts
2026-05-09 19:59 33.67677 -78.76885 12219 ft 348 kts
2026-05-09 19:59 33.70026 -78.76185 12996 ft 355 kts
2026-05-09 19:59 33.72434 -78.75421 13827 ft 361 kts
2026-05-09 19:59 33.74877 -78.74622 14593 ft 366 kts
2026-05-09 20:00 33.77344 -78.73808 15298 ft 371 kts
2026-05-09 20:00 33.79850 -78.72970 15974 ft 376 kts 10°
2026-05-09 20:00 33.82339 -78.71873 16639 ft 384 kts 15°
2026-05-09 20:00 33.84824 -78.70647 17298 ft 389 kts 16°
2026-05-09 20:01 33.87329 -78.69338 17928 ft 394 kts 17°
2026-05-09 20:01 33.89843 -78.67984 18501 ft 399 kts 18°
2026-05-09 20:01 33.92383 -78.66598 19058 ft 402 kts 17°
2026-05-09 20:01 33.94939 -78.65199 19669 ft 405 kts 17°
2026-05-09 20:02 33.97519 -78.63791 20307 ft 408 kts 17°
2026-05-09 20:02 34.00114 -78.62379 20913 ft 411 kts 16°
2026-05-09 20:02 34.02733 -78.60959 21566 ft 414 kts 15°
2026-05-09 20:03 34.08027 -78.58095 22889 ft 420 kts 14°
2026-05-09 20:03 34.10706 -78.56647 23485 ft 423 kts 14°
2026-05-09 20:03 34.13370 -78.55206 23921 ft 428 kts 14°
2026-05-09 20:03 34.16102 -78.53728 24330 ft 432 kts 15°
2026-05-09 20:04 34.18857 -78.52234 24736 ft 435 kts 15°
2026-05-09 20:04 34.21637 -78.50724 25136 ft 439 kts 15°
2026-05-09 20:04 34.24377 -78.48983 25526 ft 452 kts 24°
2026-05-09 20:04 34.26963 -78.46742 25901 ft 462 kts 30°
2026-05-09 20:05 34.29481 -78.44272 26271 ft 468 kts 32°
2026-05-09 20:05 34.31958 -78.41693 26620 ft 473 kts 34°
2026-05-09 20:05 34.33599 -78.39937 26835 ft 476 kts 34°
2026-05-09 20:05 34.36919 -78.36334 27304 ft 481 kts 34°
2026-05-09 20:06 34.39418 -78.33616 27638 ft 484 kts 34°
2026-05-09 20:06 34.41084 -78.31810 27849 ft 486 kts 34°
2026-05-09 20:06 34.43614 -78.29075 28162 ft 490 kts 34°
2026-05-09 20:06 34.47038 -78.25390 28570 ft 494 kts 33°
2026-05-09 20:07 34.49615 -78.22621 28903 ft 497 kts 33°
2026-05-09 20:07 34.52180 -78.19867 29215 ft 500 kts 33°
2026-05-09 20:07 34.54800 -78.17053 29533 ft 504 kts 33°
2026-05-09 20:07 34.57430 -78.14225 29803 ft 507 kts 33°
2026-05-09 20:08 34.60078 -78.11375 30122 ft 509 kts 33°
2026-05-09 20:08 34.64524 -78.06580 30625 ft 511 kts 33°
2026-05-09 20:08 34.68053 -78.02768 30995 ft 514 kts 32°
2026-05-09 20:09 34.69826 -78.00851 31172 ft 515 kts 32°
2026-05-09 20:09 34.72499 -77.97958 31529 ft 515 kts 32°
2026-05-09 20:09 34.75172 -77.95061 31882 ft 515 kts 32°
2026-05-09 20:09 34.77845 -77.92162 32195 ft 515 kts 31°
2026-05-09 20:10 34.80525 -77.89256 32497 ft 516 kts 31°
2026-05-09 20:10 34.83207 -77.86347 32799 ft 517 kts 31°
2026-05-09 20:10 34.85895 -77.83428 33098 ft 518 kts 30°
2026-05-09 20:10 34.88599 -77.80540 33388 ft 517 kts 29°
2026-05-09 20:11 34.91332 -77.77688 33692 ft 516 kts 28°
2026-05-09 20:11 34.94071 -77.74862 34003 ft 516 kts 28°
2026-05-09 20:11 34.96820 -77.72034 34277 ft 516 kts 28°
2026-05-09 20:11 34.99561 -77.69211 34550 ft 516 kts 28°
2026-05-09 20:12 35.02305 -77.66377 34805 ft 515 kts 28°
2026-05-09 20:12 35.05001 -77.63585 35037 ft 515 kts 28°
2026-05-09 20:12 35.07738 -77.60744 35279 ft 516 kts 28°
2026-05-09 20:12 35.10468 -77.57907 35513 ft 516 kts 28°
2026-05-09 20:13 35.13229 -77.55126 35711 ft 508 kts 22°
2026-05-09 20:13 35.16137 -77.52735 35914 ft 501 kts 19°
2026-05-09 20:13 35.19073 -77.50442 36134 ft 500 kts 18°
2026-05-09 20:13 35.22026 -77.48204 36338 ft 498 kts 17°
2026-05-09 20:14 35.24990 -77.45992 36550 ft 498 kts 17°
2026-05-09 20:14 35.27956 -77.43792 36731 ft 499 kts 17°
2026-05-09 20:14 35.30892 -77.41613 36920 ft 499 kts 16°
2026-05-09 20:14 35.33854 -77.39409 37108 ft 499 kts 16°
2026-05-09 20:15 35.36822 -77.37193 37317 ft 499 kts 16°
2026-05-09 20:15 35.39785 -77.34973 37530 ft 499 kts 16°
2026-05-09 20:15 35.42746 -77.32749 37736 ft 498 kts 16°
2026-05-09 20:15 35.45696 -77.30530 37935 ft 498 kts 16°
2026-05-09 20:16 35.48652 -77.28305 38119 ft 497 kts 16°
2026-05-09 20:16 35.51606 -77.26079 38299 ft 497 kts 15°
2026-05-09 20:16 35.54519 -77.23883 38485 ft 497 kts 15°
2026-05-09 20:16 35.57460 -77.21664 38655 ft 496 kts 15°
2026-05-09 20:17 35.60406 -77.19439 38813 ft 495 kts 15°
2026-05-09 20:17 35.63338 -77.17222 38920 ft 496 kts 16°
2026-05-09 20:17 35.66282 -77.14996 38936 ft 495 kts 16°
2026-05-09 20:18 35.72143 -77.10559 38936 ft 492 kts 16°
2026-05-09 20:18 35.77933 -77.06178 38927 ft 492 kts 16°
2026-05-09 20:19 35.83764 -77.01763 38932 ft 491 kts 16°
2026-05-09 20:19 35.89582 -76.97348 38928 ft 491 kts 16°
2026-05-09 20:20 35.95437 -76.93134 38927 ft 484 kts 13°
2026-05-09 20:20 36.01356 -76.89226 38933 ft 481 kts 12°
2026-05-09 20:21 36.07272 -76.85358 38933 ft 481 kts 13°
2026-05-09 20:21 36.13184 -76.81443 38932 ft 481 kts 13°
2026-05-09 20:22 36.19070 -76.77512 38933 ft 480 kts 13°
2026-05-09 20:22 36.24949 -76.73572 38931 ft 480 kts 14°
2026-05-09 20:23 36.30820 -76.69632 38927 ft 479 kts 14°
2026-05-09 20:23 36.36683 -76.65691 38919 ft 479 kts 14°
2026-05-09 20:24 36.42536 -76.61749 38917 ft 478 kts 14°
2026-05-09 20:24 36.48355 -76.57824 38915 ft 478 kts 15°
2026-05-09 20:25 36.54191 -76.53881 38925 ft 477 kts 15°
2026-05-09 20:25 36.60020 -76.49936 38922 ft 477 kts 15°
2026-05-09 20:26 36.65844 -76.45988 38919 ft 476 kts 15°
2026-05-09 20:26 36.71661 -76.42038 38908 ft 476 kts 15°
2026-05-09 20:27 36.77473 -76.38084 38910 ft 476 kts 16°
2026-05-09 20:27 36.83284 -76.34123 38910 ft 475 kts 16°
2026-05-09 20:28 36.89087 -76.30162 38931 ft 475 kts 16°
2026-05-09 20:28 36.94842 -76.26226 38931 ft 474 kts 16°
2026-05-09 20:29 37.03506 -76.20287 38924 ft 473 kts 16°
2026-05-09 20:29 37.09275 -76.16324 38896 ft 472 kts 16°
2026-05-09 20:30 37.15039 -76.12358 38897 ft 472 kts 17°
2026-05-09 20:30 37.20797 -76.08391 38903 ft 473 kts 17°
2026-05-09 20:31 37.26560 -76.04414 38899 ft 473 kts 17°
2026-05-09 20:31 37.32320 -76.00428 38910 ft 472 kts 17°
2026-05-09 20:32 37.38078 -75.96437 38908 ft 472 kts 17°
2026-05-09 20:32 37.43778 -75.92477 38909 ft 470 kts 17°
2026-05-09 20:33 37.49501 -75.88497 38910 ft 469 kts 16°
2026-05-09 20:33 37.55204 -75.84478 38912 ft 471 kts 18°
2026-05-09 20:34 37.60863 -75.80269 38617 ft 476 kts 18°
2026-05-09 20:34 37.63729 -75.78112 37856 ft 481 kts 19°
2026-05-09 20:34 37.66619 -75.75934 36857 ft 485 kts 19°
2026-05-09 20:35 37.69524 -75.73743 35858 ft 488 kts 20°
2026-05-09 20:35 37.72444 -75.71538 34935 ft 490 kts 20°
2026-05-09 20:35 37.75379 -75.69323 34045 ft 490 kts 20°
2026-05-09 20:35 37.78301 -75.67115 33137 ft 489 kts 21°
2026-05-09 20:36 37.81142 -75.64959 32726 ft 476 kts 21°
2026-05-09 20:36 37.83964 -75.62804 31899 ft 474 kts 21°
2026-05-09 20:36 37.86752 -75.60545 31044 ft 475 kts 24°
2026-05-09 20:36 37.89469 -75.58212 30462 ft 468 kts 25°
2026-05-09 20:37 37.92109 -75.55881 29989 ft 458 kts 25°
2026-05-09 20:37 37.94677 -75.53592 29490 ft 446 kts 25°
2026-05-09 20:37 37.97188 -75.51356 29064 ft 434 kts 25°
2026-05-09 20:37 37.99639 -75.49187 28649 ft 425 kts 25°
2026-05-09 20:38 38.02056 -75.47067 28233 ft 421 kts 25°
2026-05-09 20:38 38.04474 -75.44990 27741 ft 416 kts 20°
2026-05-09 20:38 38.07013 -75.43384 27376 ft 405 kts 16°
2026-05-09 20:38 38.09533 -75.41818 26995 ft 401 kts 15°
2026-05-09 20:39 38.12041 -75.40294 26596 ft 398 kts 15°
2026-05-09 20:39 38.14505 -75.38820 26199 ft 395 kts 15°
2026-05-09 20:39 38.16992 -75.37346 25793 ft 393 kts 15°
2026-05-09 20:39 38.19463 -75.35888 25404 ft 391 kts 15°
2026-05-09 20:40 38.21927 -75.34436 24999 ft 389 kts 15°
2026-05-09 20:40 38.24382 -75.32988 24590 ft 388 kts 15°
2026-05-09 20:40 38.26827 -75.31542 24218 ft 386 kts 15°
2026-05-09 20:40 38.29261 -75.30100 23826 ft 385 kts 16°
2026-05-09 20:41 38.31690 -75.28659 23410 ft 384 kts 16°
2026-05-09 20:41 38.34112 -75.27220 22963 ft 383 kts 16°
2026-05-09 20:41 38.36514 -75.25789 22569 ft 380 kts 16°
2026-05-09 20:41 38.38897 -75.24369 22187 ft 377 kts 16°
2026-05-09 20:42 38.41271 -75.22953 21802 ft 375 kts 16°
2026-05-09 20:42 38.43625 -75.21549 21407 ft 372 kts 17°
2026-05-09 20:42 38.45966 -75.20152 21028 ft 370 kts 17°
2026-05-09 20:42 38.48293 -75.18763 20646 ft 368 kts 17°
2026-05-09 20:43 38.50579 -75.17399 20261 ft 367 kts 17°
2026-05-09 20:43 38.52916 -75.16003 19888 ft 366 kts 17°
2026-05-09 20:43 38.55191 -75.14644 19494 ft 366 kts 17°
2026-05-09 20:43 38.57506 -75.13261 19086 ft 366 kts 17°
2026-05-09 20:44 38.59813 -75.11880 18710 ft 366 kts 18°
2026-05-09 20:44 38.62112 -75.10501 18339 ft 365 kts 18°
2026-05-09 20:44 38.64422 -75.09114 17938 ft 367 kts 18°
2026-05-09 20:44 38.66732 -75.07689 17519 ft 368 kts 19°
2026-05-09 20:45 38.69020 -75.06234 17162 ft 365 kts 20°
2026-05-09 20:45 38.71273 -75.04779 16851 ft 361 kts 20°
2026-05-09 20:45 38.73503 -75.03333 16490 ft 358 kts 20°
2026-05-09 20:45 38.75719 -75.01897 16115 ft 355 kts 21°
2026-05-09 20:46 38.77919 -75.00476 15745 ft 353 kts 21°
2026-05-09 20:46 38.80103 -74.99067 15377 ft 350 kts 21°
2026-05-09 20:46 38.82274 -74.97670 15012 ft 348 kts 21°
2026-05-09 20:46 38.84430 -74.96282 14645 ft 345 kts 21°
2026-05-09 20:47 38.86563 -74.94907 14289 ft 342 kts 21°
2026-05-09 20:47 38.88682 -74.93542 13919 ft 339 kts 21°
2026-05-09 20:47 38.90784 -74.92186 13562 ft 336 kts 21°
2026-05-09 20:47 38.92865 -74.90842 13208 ft 333 kts 21°
2026-05-09 20:48 38.94897 -74.89529 12878 ft 330 kts 21°
2026-05-09 20:48 38.96936 -74.88210 12539 ft 327 kts 21°
2026-05-09 20:48 38.98959 -74.86901 12193 ft 324 kts 21°
2026-05-09 20:48 39.00968 -74.85602 11857 ft 322 kts 22°
2026-05-09 20:49 39.02960 -74.84312 11516 ft 320 kts 22°
2026-05-09 20:49 39.04946 -74.83026 11176 ft 318 kts 22°
2026-05-09 20:49 39.06919 -74.81747 10838 ft 317 kts 22°
2026-05-09 20:49 39.08884 -74.80536 10557 ft 310 kts 14°
2026-05-09 20:50 39.10921 -74.79714 10322 ft 304 kts 11°
2026-05-09 20:50 39.12947 -74.78982 10042 ft 300 kts
2026-05-09 20:50 39.14939 -74.78343 9740 ft 298 kts
2026-05-09 20:50 39.16950 -74.77741 9430 ft 295 kts
2026-05-09 20:51 39.18943 -74.77162 9137 ft 292 kts
2026-05-09 20:51 39.20913 -74.76590 8851 ft 289 kts
2026-05-09 20:51 39.22869 -74.76018 8567 ft 286 kts
2026-05-09 20:51 39.24800 -74.75447 8281 ft 284 kts
2026-05-09 20:52 39.26722 -74.74875 7998 ft 281 kts
2026-05-09 20:52 39.28625 -74.74305 7722 ft 281 kts
2026-05-09 20:52 39.30526 -74.73733 7439 ft 280 kts
2026-05-09 20:52 39.32431 -74.73158 7162 ft 279 kts
2026-05-09 20:53 39.34292 -74.72595 6892 ft 278 kts
2026-05-09 20:53 39.36174 -74.72027 6621 ft 277 kts
2026-05-09 20:53 39.38052 -74.71459 6346 ft 277 kts
2026-05-09 20:53 39.39927 -74.70890 6063 ft 276 kts
2026-05-09 20:54 39.41765 -74.70330 5900 ft 267 kts
2026-05-09 20:54 39.43537 -74.69789 5770 ft 256 kts
2026-05-09 20:54 39.45251 -74.69267 5574 ft 251 kts
2026-05-09 20:54 39.46941 -74.68755 5305 ft 248 kts
2026-05-09 20:55 39.48623 -74.68248 4973 ft 248 kts
2026-05-09 20:55 39.50328 -74.67735 4576 ft 252 kts
2026-05-09 20:55 39.52027 -74.67222 4304 ft 249 kts 10°
2026-05-09 20:55 39.53682 -74.66720 4064 ft 245 kts 10°
2026-05-09 20:56 39.55325 -74.66220 3825 ft 240 kts 10°
2026-05-09 20:56 39.58537 -74.65243 3409 ft 231 kts 10°
2026-05-09 20:56 39.60079 -74.64746 3117 ft 227 kts 16°
2026-05-09 20:57 39.61479 -74.63864 2904 ft 220 kts 34°
2026-05-09 20:57 39.62546 -74.62501 2708 ft 212 kts 57°
2026-05-09 20:57 39.63128 -74.60782 2510 ft 207 kts 82°
2026-05-09 20:57 39.63203 -74.59566 2369 ft 202 kts 98°
2026-05-09 20:58 39.62892 -74.57814 2118 ft 198 kts 115°
2026-05-09 20:58 39.62371 -74.56174 2016 ft 196 kts 118°
2026-05-09 20:58 39.61758 -74.54599 1998 ft 194 kts 128°
2026-05-09 20:58 39.60888 -74.53311 1930 ft 185 kts 146°
2026-05-09 20:59 39.59794 -74.52508 1725 ft 179 kts 165°
2026-05-09 20:59 39.58590 -74.52239 1618 ft 175 kts 183°
2026-05-09 20:59 39.57381 -74.52430 1584 ft 176 kts 193°
2026-05-09 21:00 39.55009 -74.53149 1582 ft 175 kts 194°
2026-05-09 21:00 39.53831 -74.53514 1594 ft 167 kts 195°
2026-05-09 21:00 39.52800 -74.53826 1567 ft 142 kts 195°
2026-05-09 21:00 39.51868 -74.54112 1318 ft 134 kts 195°
2026-05-09 21:01 39.50992 -74.54481 1035 ft 131 kts 202°
2026-05-09 21:01 39.50708 -74.54635 939 ft 130 kts 203°